TimeEST,TemperatureF,Dew PointF,Humidity,Sea Level PressureIn,VisibilityMPH,Wind Direction,Wind SpeedMPH,Gust SpeedMPH,PrecipitationIn,Events,Conditions,WindDirDegrees,DateUTC
12:53 AM,48.9,37.9,66,30.23,10.0,East,3.5,-,N/A,,Clear,100,2013-11-06 05:53:00
1:53 AM,48.9,37.9,66,30.21,10.0,SE,3.5,-,N/A,,Clear,130,2013-11-06 06:53:00
2:53 AM,48.9,39.0,69,30.20,10.0,Calm,Calm,-,N/A,,Mostly Cloudy,0,2013-11-06 07:53:00
4:53 AM,46.9,39.0,74,30.18,10.0,Calm,Calm,-,N/A,,Scattered Clouds,0,2013-11-06 09:53:00
5:53 AM,48.9,39.9,71,30.15,10.0,East,3.5,-,N/A,,Clear,100,2013-11-06 10:53:00
6:53 AM,51.1,39.9,66,30.14,10.0,Calm,Calm,-,N/A,,Scattered Clouds,0,2013-11-06 11:53:00
7:53 AM,55.0,39.9,57,30.12,10.0,Variable,3.5,-,N/A,,Partly Cloudy,0,2013-11-06 12:53:00
8:53 AM,57.9,41.0,53,30.12,10.0,Variable,4.6,-,N/A,,Mostly Cloudy,0,2013-11-06 13:53:00
9:53 AM,59.0,46.0,62,30.11,8.0,SSW,6.9,-,0.01,Rain,Light Rain,200,2013-11-06 14:53:00
10:53 AM,64.0,50.0,60,30.09,10.0,SSW,8.1,-,0.00,,Overcast,200,2013-11-06 15:53:00
11:53 AM,66.0,52.0,60,30.06,10.0,SSW,10.4,18.4,N/A,,Mostly Cloudy,200,2013-11-06 16:53:00
12:53 PM,63.0,54.0,72,30.04,10.0,SSW,5.8,-,0.00,Rain,Light Rain,210,2013-11-06 17:53:00
1:53 PM,61.0,57.0,87,30.03,8.0,South,4.6,-,0.03,Rain,Light Rain,190,2013-11-06 18:53:00
2:53 PM,61.0,57.9,90,30.01,5.0,SSW,4.6,-,0.03,Rain,Light Rain,200,2013-11-06 19:53:00
3:53 PM,61.0,57.9,90,30.00,5.0,SSW,5.8,-,0.02,Rain,Light Rain,210,2013-11-06 20:53:00
4:10 PM,60.8,57.2,88,30.00,10.0,SSW,6.9,-,0.01,,Overcast,210,2013-11-06 21:10:00
4:53 PM,61.0,57.9,90,30.00,10.0,SW,9.2,-,0.02,Rain,Light Rain,220,2013-11-06 21:53:00
5:05 PM,60.8,59.0,94,29.99,4.0,SSW,6.9,-,0.02,Rain,Rain,210,2013-11-06 22:05:00
5:40 PM,60.8,59.0,94,30.00,10.0,SSW,5.8,-,0.04,Rain,Light Rain,210,2013-11-06 22:40:00
5:53 PM,61.0,59.0,93,30.00,9.0,SW,6.9,-,0.04,,Overcast,220,2013-11-06 22:53:00
6:14 PM,60.8,59.0,94,30.00,8.0,SW,6.9,-,0.01,Rain,Light Rain,230,2013-11-06 23:14:00
6:25 PM,60.8,59.0,94,30.00,8.0,SW,4.6,-,0.01,,Overcast,230,2013-11-06 23:25:00
6:53 PM,60.1,59.0,96,30.00,10.0,SW,8.1,-,0.01,,Overcast,220,2013-11-06 23:53:00
7:15 PM,60.8,57.2,88,30.00,10.0,WSW,5.8,-,N/A,,Overcast,240,2013-11-07 00:15:00
7:25 PM,60.8,57.2,88,30.00,8.0,West,8.1,-,0.00,Rain,Light Rain,270,2013-11-07 00:25:00
7:53 PM,59.0,57.0,93,30.00,10.0,WSW,5.8,-,0.00,,Overcast,250,2013-11-07 00:53:00
8:53 PM,57.9,55.9,93,30.00,9.0,West,4.6,-,0.01,Rain,Light Rain,260,2013-11-07 01:53:00
9:07 PM,57.2,55.4,94,30.00,3.0,West,5.8,-,0.03,Rain,Heavy Rain,270,2013-11-07 02:07:00
9:19 PM,57.2,55.4,94,30.00,5.0,West,6.9,-,0.05,Rain,Light Rain,270,2013-11-07 02:19:00
9:42 PM,57.2,55.4,94,30.02,8.0,West,8.1,-,0.06,Rain,Light Rain,260,2013-11-07 02:42:00
9:53 PM,55.9,53.1,90,30.04,3.0,NW,24.2,31.1,0.10,Rain,Heavy Rain,310,2013-11-07 02:53:00
10:00 PM,51.8,48.2,88,30.03,4.0,NW,21.9,32.2,0.03,Rain,Heavy Rain,320,2013-11-07 03:00:00
10:04 PM,50.0,48.2,94,30.04,4.0,NW,20.7,32.2,0.04,Rain,Heavy Rain,320,2013-11-07 03:04:00
10:15 PM,48.2,46.4,93,30.05,8.0,WNW,17.3,27.6,0.05,Rain,Rain,300,2013-11-07 03:15:00
10:33 PM,48.2,44.6,87,30.06,9.0,WNW,10.4,21.9,0.06,Rain,Rain,300,2013-11-07 03:33:00
10:53 PM,46.9,45.0,93,30.06,7.0,West,9.2,-,0.09,Rain,Light Rain,280,2013-11-07 03:53:00
11:53 PM,46.0,43.0,89,30.07,10.0,NW,9.2,-,0.03,Rain,Light Rain,310,2013-11-07 04:53:00